User: anonymous   Login
Location: Bannatyne
(13.0833°N, 59.5333°W)
Time: 05:07:28
(UTC+00:00)
Language:

Cosmos 1777 Rocket - Orbit

View from above orbital plane
View from above orbital plane
View from above satellite
View from above satellite

Ground track
Ground track

The orbit data is extracted from the following two-line orbital elements,

1 16953U 86070B   19341.70701822  .00000000  00000-0  88831-5 0  9993
2 16953  74.0137  51.4464 0011258  52.3011 307.9162 14.37370161741868
Epoch (UTC): 07 December 2019 16:58:06
Eccentricity: 0.0011258
inclination: 74.0137°
perigee height: 759 km
apogee height: 775 km
right ascension of ascending node: 51.4464°
argument of perigee: 52.3011°
revolutions per day: 14.37370161
mean anomaly at epoch: 307.9162°
orbit number at epoch: 74186

The dashed part of the orbit path shows where the satellite is in the earth's shadow,  

DLR